Onweer radar Meer informatie blitzortung!


Regen radar Meer informatie rain snow radar


Bezoek onze andere website:

Template documentation
and downloads

And another site



15 daagse weersverwachting Ålesund (NO)

  • Overzicht
  • Per uur
  • 15 dagen
  • Extra
  • Vergelijk
  • Kaarten
  • Dagkaart
  • Meer »
  • Info
  • Statistieken
  • Directe link
    Temp 6h Neerslag Wind  
 05:48     21:32    Daglengte: 15:44 Vandaag
02:00
15°
 
7
08:00
14°
 
3
14:00
19°
 
3
20:00
16°
 
1
 05:51     21:29    Daglengte: 15:38 Morgen
02:00
14°
 
2
08:00
14°
 
3
14:00
17°
1.9 mm
4
20:00
15°
6.2 mm
3
 05:53     21:26    Daglengte: 15:33 Dinsdag 20 Aug
02:00
13°
7.8 mm
3
08:00
13°
13.6 mm
5
14:00
15°
22.6 mm
6
20:00
13°
5.6 mm
7
Locatie info
Region: Møre og Romsdal
Latitude: 62.4715°N
Longitude: 6.1729°E
3 masl
Postcode: 6003
Temp/Neerslag /Baro Onweer/Dauwpunt
    Temp Baro 1h Neerslag Dauwpunt Wind UV Bewolking  
 05:48     21:32    Daglengte: 15:44 Vandaag
02:00
15°
995.9 hPa
49%
11.8°
7
Windvlaag: 11.5 m/s
13%
03:00
14°
996.4 hPa
14%
10.7°
6
Windvlaag: 11.2 m/s
0%
04:00
14°
996.7 hPa
14%
9.9°
4
Windvlaag: 8.9 m/s
0%
05:00
14°
996.8 hPa
15%
9.2°
4
Windvlaag: 6.2 m/s
0%
06:00
13°
996.8 hPa
14%
8.9°
3
Windvlaag: 5.5 m/s
4%
07:00
13°
996.7 hPa
14%
8.8°
3
Windvlaag: 4.9 m/s
23%
08:00
14°
996.7 hPa
14%
8.4°
3
Windvlaag: 4.5 m/s
42%
09:00
15°
996.8 hPa
14%
8.1°
3
Windvlaag: 4.5 m/s
28%
10:00
16°
996.8 hPa
14%
7.6°
3
Windvlaag: 5.1 m/s
34%
11:00
17°
996.9 hPa
14%
7.5°
3
Windvlaag: 6.1 m/s
42%
12:00
18°
997.0 hPa
14%
7.6°
4
Windvlaag: 7 m/s
62%
13:00
18°
997.1 hPa
53%
7.5°
3
Windvlaag: 6.7 m/s
72%
14:00
19°
996.9 hPa
19%
8.0°
3
Windvlaag: 6.6 m/s
48%
15:00
18°
996.8 hPa
29%
7.9°
3
Windvlaag: 6.6 m/s
63%
16:00
17°
996.8 hPa
65%
9.2°
3
Windvlaag: 5.8 m/s
66%
17:00
17°
996.7 hPa
53%
11.6°
3
Windvlaag: 5.5 m/s
57%
18:00
17°
996.4 hPa
15%
11.9°
2
Windvlaag: 4.5 m/s
61%
19:00
16°
996.3 hPa
14%
11.9°
3
Windvlaag: 5.6 m/s
57%
20:00
16°
996.2 hPa
14%
11.9°
1
Windvlaag: 4.4 m/s
61%
21:00
15°
996.1 hPa
14%
12.0°
2
Windvlaag: 3.6 m/s
62%
22:00
15°
996.0 hPa
15%
11.7°
2
Windvlaag: 3.5 m/s
61%
23:00
14°
996.0 hPa
21%
11.7°
2
Windvlaag: 3.1 m/s
37%
 05:51     21:29    Daglengte: 15:38 Morgen
00:00
14°
995.9 hPa
19%
11.4°
1
Windvlaag: 3.4 m/s
50%
01:00
14°
995.9 hPa
25%
11.7°
2
Windvlaag: 3.8 m/s
51%
02:00
14°
996.0 hPa
21%
11.5°
2
Windvlaag: 4.4 m/s
47%
03:00
13°
995.5 hPa
25%
11.2°
3
Windvlaag: 4 m/s
22%
04:00
13°
995.2 hPa
34%
11.3°
3
Windvlaag: 4.9 m/s
15%
05:00
13°
994.9 hPa
60%
10.8°
3
Windvlaag: 5 m/s
12%
06:00
13°
994.7 hPa
14%
10.5°
3
Windvlaag: 4.9 m/s
25%
07:00
13°
994.6 hPa
14%
9.8°
3
Windvlaag: 5.2 m/s
27%
08:00
14°
994.5 hPa
25%
9.8°
3
Windvlaag: 5.4 m/s
71%
09:00
14°
994.9 hPa
82%
9.1°
3
Windvlaag: 4.9 m/s
72%
10:00
15°
995.4 hPa 1.9 mm
80%
10.6°
3
Windvlaag: 4.9 m/s
77%
11:00
16°
995.4 hPa
63%
11.1°
3
Windvlaag: 4.9 m/s
28%
12:00
17°
995.7 hPa
28%
9.8°
4
Windvlaag: 7.9 m/s
63%
13:00
17°
996.0 hPa
71%
9.9°
4
Windvlaag: 10.1 m/s
48%
14:00
17°
996.9 hPa
76%
10.5°
4
Windvlaag: 10.6 m/s
55%
15:00
17°
997.3 hPa 2.1 mm
77%
11.1°
3
Windvlaag: 8.9 m/s
41% warningclass
16:00
17°
997.8 hPa 2.0 mm
74%
10.4°
4
Windvlaag: 9.3 m/s
54%
17:00
16°
998.4 hPa 2.1 mm
71%
11.8°
3
Windvlaag: 9.1 m/s
62%
18:00
15°
998.9 hPa
66%
12.2°
3
Windvlaag: 8 m/s
57%
19:00
15°
999.3 hPa
79%
11.3°
5
Windvlaag: 9.2 m/s
45%
20:00
15°
999.6 hPa
74%
11.0°
3
Windvlaag: 8.1 m/s
48%
21:00
14°
999.9 hPa 2.1 mm
66%
11.1°
3
Windvlaag: 6.4 m/s
83%
22:00
14°
1000.4 hPa
25%
10.8°
3
Windvlaag: 5.9 m/s
50%
23:00
13°
1000.8 hPa
26%
10.1°
3
Windvlaag: 6.6 m/s
63%
 05:53     21:26    Daglengte: 15:33 Dinsdag 20 Aug
00:00
13°
1001.0 hPa
50%
10.0°
3
Windvlaag: 6.2 m/s
92%
01:00
13°
1001.3 hPa 2.3 mm
100%
9.9°
4
Windvlaag: 6.7 m/s
94%
02:00
13°
1001.6 hPa 3.4 mm
100%
11.2°
3
Windvlaag: 6.6 m/s
93%
03:00
13°
1001.8 hPa 2.7 mm
99%
11.0°
6
Windvlaag: 10.1 m/s
82%
04:00
13°
1002.4 hPa 3.4 mm
100%
11.4°
5
Windvlaag: 9.8 m/s
83%
05:00
13°
1002.8 hPa 4.8 mm
92%
11.5°
5
Windvlaag: 9.1 m/s
74%
06:00
13°
1003.3 hPa 2.7 mm
86%
11.0°
4
Windvlaag: 8.5 m/s
75%
07:00
13°
1004.0 hPa
37%
10.9°
4
Windvlaag: 7 m/s
45%
08:00
13°
1004.7 hPa
24%
10.3°
5
Windvlaag: 7.9 m/s
35%
09:00
13°
1005.2 hPa
22%
10.2°
6
Windvlaag: 10.7 m/s
77%
10:00
13°
1006.0 hPa 5.7 mm
28%
11.0°
5
Windvlaag: 10.4 m/s
65%
11:00
14°
1006.7 hPa
85%
11.2°
6
Windvlaag: 11.1 m/s
69%
12:00
15°
1007.4 hPa 5.6 mm
100%
11.1°
6
Windvlaag: 10.3 m/s
75%
13:00
15°
1008.3 hPa 5.6 mm
100%
10.3°
7
Windvlaag: 11.9 m/s
69%
14:00
15°
1009.0 hPa 5.7 mm
100%
9.7°
6
Windvlaag: 11.3 m/s
72%
15:00
15°
1009.4 hPa 5.6 mm
99%
10.0°
6
Windvlaag: 9.7 m/s
75%
16:00
15°
1009.8 hPa
96%
10.3°
6
Windvlaag: 9.4 m/s
69%
17:00
14°
1010.2 hPa
96%
10.3°
6
Windvlaag: 9.3 m/s
64%
18:00
14°
1010.6 hPa
40%
10.5°
7
Windvlaag: 9.2 m/s
69%
19:00
14°
1011.0 hPa
51%
10.6°
7
Windvlaag: 9.4 m/s
42%
20:00
13°
1011.3 hPa
35%
10.7°
7
Windvlaag: 1.4 m/s
58%
21:00
13°
1011.9 hPa
33%
10.7°
6
Windvlaag: 8.3 m/s
52%
22:00
13°
1012.5 hPa
35%
10.6°
5
Windvlaag: 5.3 m/s
71%
23:00
13°
1013.1 hPa
77%
10.4°
5
Windvlaag: 6.6 m/s
69%
 05:56     21:22    Daglengte: 15:26 Woensdag 21 Aug
00:00
12°
1013.7 hPa
80%
10.3°
5
Windvlaag: 5.5 m/s
65%
01:00
12°
1014.2 hPa
89%
10.3°
5
Windvlaag: 6 m/s
64%
Temp/Neerslag /Baro Onweer/Dauwpunt
    Temp Baro Neerslag Dauwpunt Wind Bewolking  
 05:48     21:32    Daglengte: 15:44 Vandaag
02:00
15°
995.9 hPa   11.8°
7
13%
05:00
14°
996.8 hPa   9.2°
4
0%
08:00
14°
996.7 hPa   8.4°
3
42%
11:00
17°
996.9 hPa   7.5°
3
42%
14:00
19°
996.9 hPa   8.0°
3
48%
17:00
17°
996.7 hPa   11.6°
3
57%
20:00
16°
996.2 hPa   11.9°
1
61%
23:00
14°
996.0 hPa   11.7°
2
37%
 05:51     21:29    Daglengte: 15:38 Morgen
02:00
14°
996.0 hPa   11.5°
2
47%
05:00
13°
994.9 hPa   10.8°
3
12%
08:00
14°
994.5 hPa   9.8°
3
71%
11:00
16°
995.4 hPa 1.9 mm 11.1°
3
28%
14:00
17°
996.9 hPa   10.5°
4
55%
17:00
16°
998.4 hPa 6.2 mm 11.8°
3
62%
20:00
15°
999.6 hPa   11.0°
3
48%
23:00
13°
1000.8 hPa 2.1 mm 10.1°
3
63%
 05:53     21:26    Daglengte: 15:33 Dinsdag 20 Aug
02:00
13°
1001.6 hPa 5.7 mm 11.2°
3
93%
05:00
13°
1002.8 hPa 10.9 mm 11.5°
5
74%
08:00
13°
1004.7 hPa 2.7 mm 10.3°
5
35%
11:00
14°
1006.7 hPa 5.7 mm 11.2°
6
69%
14:00
15°
1009.0 hPa 16.9 mm 9.7°
6
72%
17:00
14°
1010.2 hPa 5.6 mm 10.3°
6
64%
20:00
13°
1011.3 hPa   10.7°
7
58%
23:00
13°
1013.1 hPa   10.4°
5
69%
 05:56     21:22    Daglengte: 15:26 Woensdag 21 Aug
02:00
12°
1014.6 hPa 19.9 mm 10.2°
5
68%
05:00
12°
1017.1 hPa 23.6 mm 9.3°
6
60%
08:00
11°
1018.5 hPa 23.7 mm 9.0°
5
57%
11:00
13°
1019.3 hPa 23.7 mm 8.3°
6
61%
14:00
14°
1020.1 hPa 23.7 mm 7.2°
6
64%
17:00
14°
1019.6 hPa 23.9 mm 8.5°
4
55%
20:00
14°
1019.1 hPa 24.0 mm 9.7°
2
47%
23:00
12°
1018.1 hPa 24.6 mm 8.9°
2
65%
 05:59     21:19    Daglengte: 15:20 Donderdag 22 Aug
02:00
11°
1017.1 hPa 24.8 mm 8.1°
2
84%
05:00
12°
1015.7 hPa 25.0 mm 8.4°
3
88%
08:00
12°
1014.3 hPa 25.0 mm 8.6°
3
92%
11:00
14°
1013.0 hPa 25.3 mm 9.6°
2
91%
14:00
16°
1011.7 hPa 25.5 mm 10.5°
2
91%
17:00
15°
1011.5 hPa 25.8 mm 11.1°
3
91%
20:00
15°
1011.3 hPa 25.9 mm 11.7°
4
91%
23:00
13°
1011.8 hPa 25.9 mm 10.5°
3
78%
 06:01     21:16    Daglengte: 15:15 Vrijdag 23 Aug
02:00
12°
1012.2 hPa 25.9 mm 9.3°
3
66%
05:00
12°
1012.7 hPa 26.3 mm 9.7°
4
76%
08:00
12°
1013.2 hPa 27.5 mm 10.1°
5
86%
11:00
14°
1014.7 hPa 27.5 mm 10.8°
6
88%
14:00
15°
1016.2 hPa 28.0 mm 11.5°
6
90%
17:00
15°
1017.6 hPa 28.1 mm 11.5°
4
82%
20:00
14°
1019.1 hPa 28.2 mm 11.5°
2
74%
23:00
13°
1019.9 hPa 28.2 mm 11.3°
2
81%
 06:04     21:13    Daglengte: 15:09 Zaterdag 24 Aug
02:00
13°
1020.7 hPa 28.2 mm 11.0°
2
88%
05:00
13°
1020.9 hPa 28.2 mm 11.0°
2
90%
08:00
13°
1021.1 hPa 28.2 mm 10.9°
3
91%
11:00
15°
1021.1 hPa 28.2 mm 11.5°
3
91%
14:00
18°
1021.0 hPa 28.2 mm 11.7°
3
90%
17:00
17°
1021.2 hPa 28.2 mm 12.5°
3
87%
20:00
16°
1021.4 hPa 28.3 mm 13.1°
2
85%
23:00
15°
1021.2 hPa   12.6°
2
87%
 06:07     21:09    Daglengte: 15:02 Zondag 25 Aug
02:00
13°
1021.0 hPa 56.6 mm 12.0°
1
90%
08:00
13°
1019.4 hPa 56.7 mm 11.9°
2
88%
14:00
15°
1016.0 hPa 57.1 mm 12.5°
2
92%
20:00
13°
1015.0 hPa 75.0 mm 12.1°
3
92%
 06:10     21:06    Daglengte: 14:56 Maandag 26 Aug
02:00
13°
1020.0 hPa 92.3 mm 11.6°
2
90%
08:00
12°
1019.4 hPa 92.6 mm 10.6°
2
85%
14:00
15°
1020.6 hPa 92.8 mm 9.9°
4
78%
20:00
13°
1019.8 hPa 92.8 mm 10.7°
3
75%
 06:12     21:03    Daglengte: 14:51 Dinsdag 27 Aug
02:00
12°
1019.0 hPa 93.0 mm 10.1°
3
85%
08:00
12°
1019.1 hPa 93.0 mm 10.3°
3
91%
14:00
12°
1028.4 hPa 93.0 mm 8.5°
8
1%
20:00
13°
1017.0 hPa 2.4 mm 9.9°
3
65%
 06:15     20:59    Daglengte: 14:44 Woensdag 28 Aug
02:00
11°
1017.6 hPa 1.9 mm 9.2°
2
63%
08:00
12°
1016.5 hPa 2.5 mm 9.1°
2
62%
14:00
14°
1015.8 hPa 2.9 mm 8.9°
2
55%
20:00
13°
1015.8 hPa 1.9 mm 9.2°
2
55%
 06:18     20:56    Daglengte: 14:38 Donderdag 29 Aug
02:00
11°
1016.1 hPa 0.9 mm 8.9°
2
56%
08:00
12°
1015.7 hPa 1.4 mm 9.1°
2
62%
14:00
15°
1016.0 hPa 1.0 mm 9.1°
2
61%
20:00
13°
1016.2 hPa 0.8 mm 9.0°
2
58%
 06:20     20:53    Daglengte: 14:33 Vrijdag 30 Aug
02:00
11°
1016.7 hPa 0.8 mm 8.5°
1
52%
08:00
11°
1016.0 hPa 0.7 mm 8.3°
1
57%
14:00
14°
1015.6 hPa 1.2 mm 7.9°
2
54%
20:00
12°
1015.2 hPa 0.7 mm 8.3°
1
48%
 06:23     20:49    Daglengte: 14:26 Zaterdag 31 Aug
02:00
10°
1014.9 hPa 0.8 mm 8.0°
2
46%
08:00
10°
1013.4 hPa 0.9 mm 8.0°
2
51%
14:00
14°
1011.6 hPa 1.2 mm 7.9°
2
51%
20:00
13°
1009.8 hPa 1.5 mm 8.6°
1
63%
 06:26     20:46    Daglengte: 14:20 Zondag 01 Sep
02:00
11°
1009.4 hPa 2.7 mm 8.5°
2
68%
08:00
11°
1009.2 hPa 3.0 mm 8.8°
2
75%
14:00
14°
1009.7 hPa 2.2 mm 8.7°
3
68%
20:00
12°
1009.8 hPa 2.8 mm 8.5°
2
67%
  CAPE Lifted Index Hail Supercell Tornado SRH 3km CL BTM PRES CL TOP PRES Swiss DWD icon SMHI TS
 05:48     21:32    Daglengte: 15:44 Vandaag
02:00 215 J/kg -0.3 K 0 % 0 % 0 % 0 m²/s² 0 0 2.49 1
03:00 256 J/kg -1.1 K 0 % 0 % 0 % 0 m²/s² 0 0 1.48 0
04:00 257 J/kg -1.5 K 0 % 0 % 0 % 0 m²/s² 0 0 0.21 0
05:00 142 J/kg -0.8 K 0 % 0 % 0 % 0 m²/s² 0 0 0.91 0
06:00 65 J/kg 0.2 K 0 % 0 % 0 % 0 m²/s² 0 0 2.09 2
07:00 69 J/kg 0.6 K 0 % 0 % 0 % 0 m²/s² 0 0 2.1 1
08:00 105 J/kg 0.6 K 0 % 0 % 0 % 0 m²/s² 0 0 1.92 3
09:00 131 J/kg 0.2 K 0 % 0 % 0 % 0 m²/s² 0 0 1.49 2
10:00 154 J/kg 0.1 K 0 % 0 % 0 % 0 m²/s² 0 0 1.99 2
11:00 141 J/kg 0.5 K 0 % 0 % 0 % 0 m²/s² 0 0 3.23 2
12:00 223 J/kg 0.1 K 0 % 0 % 0 % 0 m²/s² 0 0 1.27 1
13:00 297 J/kg -0.4 K 0 % 0 % 0 % 0 m²/s² 0 0 0.35 3
14:00 364 J/kg -1.2 K 0 % 0 % 0 % 0 m²/s² 0 0 -0.48 1
15:00 430 J/kg -1.7 K 0 % 0 % 0 % 0 m²/s² 0 0 -0.71 2
16:00 467 J/kg -1.9 K 0 % 0 % 0 % 0 m²/s² 0 0 -0.61 3
17:00 508 J/kg -2.0 K 0 % 0 % 0 % 0 m²/s² 0 0 -0.65 3
18:00 536 J/kg -2.0 K 0 % 0 % 0 % 0 m²/s² 0 0 -1.46 3
19:00 200 J/kg -0.8 K 0 % 0 % 0 % 0 m²/s² 0 0 0.1 3
20:00 35 J/kg 0.0 K 0 % 0 % 0 % 0 m²/s² 0 0 1.74 3
21:00 101 J/kg -0.7 K 0 % 0 % 0 % 0 m²/s² 0 0 0.38 3
22:00 68 J/kg 0.3 K 0 % 0 % 0 % 0 m²/s² 0 0 0.84 3
23:00 0 J/kg 1.1 K 0 % 0 % 0 % 0 m²/s² 0 0 2.54 2
 05:51     21:29    Daglengte: 15:38 Morgen
00:00 18 J/kg 0.3 K 0 % 0 % 0 % 0 m²/s² 0 0 2.4 1
01:00 25 J/kg 0.3 K 0 % 0 % 0 % 0 m²/s² 0 0 1.92 1
02:00 0 J/kg 0.8 K 0 % 0 % 0 % 0 m²/s² 0 0 1.64 2
03:00 1 J/kg 1.1 K 0 % 0 % 0 % 0 m²/s² 0 0 2.18 2
04:00 11 J/kg 1.1 K 0 % 0 % 0 % 0 m²/s² 0 0 3.08 1
05:00 0 J/kg 1.5 K 0 % 0 % 0 % 0 m²/s² 0 0 4.65 0
06:00 0 J/kg 2.6 K 0 % 0 % 0 % 0 m²/s² 0 0 4.34 2
07:00 0 J/kg 0.8 K 0 % 0 % 0 % 0 m²/s² 0 0 1.25 2
08:00 0 J/kg 0.6 K 0 % 0 % 0 % 0 m²/s² 0 0 0.69 3
09:00 0 J/kg 0.1 K 0 % 0 % 0 % 0 m²/s² 0 0 0.52 80
10:00 174 J/kg -0.7 K 0 % 0 % 0 % 0 m²/s² 0 0 -0.19 61
11:00 345 J/kg -1.2 K 0 % 0 % 0 % 0 m²/s² 0 0 0.27 2
12:00 350 J/kg -1.3 K 0 % 0 % 0 % 0 m²/s² 0 0 0.32 3
13:00 453 J/kg -1.6 K 0 % 0 % 0 % 0 m²/s² 0 0 -0.46 3
14:00 108 J/kg -0.4 K 0 % 0 % 0 % 0 m²/s² 0 0 0.41 80
15:00 533 J/kg -2.2 K 0 % 0 % 0 % 0 m²/s² 0 0 0.17 95
16:00 539 J/kg -2.3 K 0 % 0 % 0 % 0 m²/s² 0 0 -0.92 80
17:00 455 J/kg -1.8 K 0 % 0 % 0 % 0 m²/s² 0 0 -0.24 3
18:00 421 J/kg -1.6 K 0 % 0 % 0 % 0 m²/s² 0 0 -0.37 3
19:00 408 J/kg -1.5 K 0 % 0 % 0 % 0 m²/s² 0 0 0.42 3
20:00 298 J/kg -1.1 K 0 % 0 % 0 % 0 m²/s² 0 0 0.58 3
21:00 326 J/kg -1.0 K 0 % 0 % 0 % 0 m²/s² 0 0 0.56 3
22:00 359 J/kg -1.2 K 0 % 0 % 0 % 0 m²/s² 0 0 -0.12 2
23:00 349 J/kg -1.2 K 0 % 0 % 0 % 0 m²/s² 0 0 -0.75 2
 05:53     21:26    Daglengte: 15:33 Dinsdag 20 Aug
00:00 243 J/kg -0.9 K 0 % 0 % 0 % 0 m²/s² 0 0 -0 3
01:00 219 J/kg -0.9 K 0 % 0 % 0 % 0 m²/s² 0 0 0.54 61
02:00 257 J/kg -1.0 K 0 % 0 % 0 % 0 m²/s² 0 0 0.35 3
03:00 147 J/kg -0.6 K 0 % 0 % 0 % 0 m²/s² 0 0 0.6 61
04:00 139 J/kg -0.5 K 0 % 0 % 0 % 0 m²/s² 0 0 0.43 3
05:00 112 J/kg -0.2 K 0 % 0 % 0 % 0 m²/s² 0 0 0.85 3
06:00 100 J/kg -0.1 K 0 % 0 % 0 % 0 m²/s² 0 0 0.95 3
07:00 122 J/kg -0.2 K 0 % 0 % 0 % 0 m²/s² 0 0 0.85 3
08:00 155 J/kg -0.3 K 0 % 0 % 0 % 0 m²/s² 0 0 -0.06 2
09:00 135 J/kg -0.4 K 0 % 0 % 0 % 0 m²/s² 0 0 -0.25 3
10:00 130 J/kg -0.1 K 0 % 0 % 0 % 0 m²/s² 0 0 0.71 3
11:00 120 J/kg 0.2 K 0 % 0 % 0 % 0 m²/s² 0 0 2.12 3
12:00 180 J/kg 0.0 K 0 % 0 % 0 % 0 m²/s² 0 0 1.62 80
13:00 238 J/kg -0.2 K 0 % 0 % 0 % 0 m²/s² 0 0 0.97 3
14:00 258 J/kg -0.2 K 0 % 0 % 0 % 0 m²/s² 0 0 0.94 61
15:00 179 J/kg 0.2 K 0 % 0 % 0 % 0 m²/s² 0 0 1.55 3
16:00 210 J/kg 0.0 K 0 % 0 % 0 % 0 m²/s² 0 0 1.29 61
17:00 139 J/kg 0.5 K 0 % 0 % 0 % 0 m²/s² 0 0 1.88 3
18:00 116 J/kg 0.9 K 0 % 0 % 0 % 0 m²/s² 0 0 2.58 3
19:00 141 J/kg 0.7 K 0 % 0 % 0 % 0 m²/s² 0 0 2.5 2
20:00 192 J/kg 0.4 K 0 % 0 % 0 % 0 m²/s² 0 0 2.38 2
21:00 208 J/kg 0.4 K 0 % 0 % 0 % 0 m²/s² 0 0 2.5 1
22:00 169 J/kg 0.7 K 0 % 0 % 0 % 0 m²/s² 0 0 2.92 3
23:00 74 J/kg 1.8 K 0 % 0 % 0 % 0 m²/s² 0 0 3.09 2
 05:56     21:22    Daglengte: 15:26 Woensdag 21 Aug
00:00 81 J/kg 1.9 K 0 % 0 % 0 % 0 m²/s² 0 0 5.44 3
01:00 95 J/kg 1.8 K 0 % 0 % 0 % 0 m²/s² 0 0 5.85 3
Temp Baro Wind Neerslag
  EWN Forecast EWN WRFDA DWD ICON FMI HIRLAM MET Norway GFS
 05:48     21:32    Daglengte: 15:44 Vandaag
02:00 14.8° 995.9 hPa 7.2 m/s 0.0 mm 13.2° 994.1 hPa 7.2 m/s 1.4 mm 14.9° 995.8 hPa 2.9 m/s -2.0 mm 14.9° 996.1 hPa 7.1 m/s 0.0 mm 14.5° 996.1 hPa 7.8 m/s 0.5 mm 14.2° 995.1 hPa 7.0 m/s
05:00 13.5° 996.8 hPa 3.6 m/s 0.0 mm 12.4° 994.8 hPa 5.5 m/s 4.2 mm 13.6° 996.8 hPa 0.5 m/s 0.0 mm 14.1° 996.9 hPa 7.0 m/s 0.0 mm 12.3° 997.1 hPa 3.2 m/s 0.0 mm 13.7° 996.7 hPa 4.1 m/s
08:00 14.2° 996.7 hPa 3.0 m/s 0.0 mm 14.4° 994.9 hPa 6.7 m/s 4.2 mm 13.9° 996.6 hPa 1.8 m/s 0.0 mm 14.6° 996.8 hPa 6.5 m/s 0.0 mm 13.4° 997.1 hPa 2.6 m/s 0.0 mm 14.0° 996.5 hPa 2.3 m/s
11:00 17.0° 996.9 hPa 3.4 m/s 0.0 mm 17.0° 995.2 hPa 6.0 m/s 4.2 mm 16.6° 997.4 hPa 1.9 m/s 0.0 mm 16.7° 996.8 hPa 5.4 m/s 0.0 mm 17.8° 997.1 hPa 3.3 m/s 0.0 mm 15.2° 996.6 hPa 0.6 m/s
14:00 18.7° 996.9 hPa 3.2 m/s 0.0 mm 16.9° 995.0 hPa 3.0 m/s 4.7 mm 18.7° 997.2 hPa 1.9 m/s 0.0 mm 17.4° 996.8 hPa 4.9 m/s 0.0 mm 20.9° 997.2 hPa 3.4 m/s 0.0 mm 15.2° 996.3 hPa 3.3 m/s
17:00 17.0° 996.7 hPa 3.0 m/s 0.0 mm 17.3° 994.7 hPa 2.6 m/s 7.8 mm 17.4° 996.4 hPa 2.4 m/s 0.0 mm 16.3° 996.9 hPa 1.7 m/s 0.0 mm 17.1° 997.1 hPa 5.4 m/s 0.0 mm 14.6° 996.2 hPa 1.3 m/s
20:00 15.7° 996.2 hPa 1.4 m/s 0.0 mm 15.0° 993.7 hPa 2.0 m/s 18.6 mm 16.5° 995.8 hPa 1.1 m/s 0.0 mm 15.4° 996.9 hPa 0.6 m/s 0.0 mm 15.6° 996.6 hPa 1.4 m/s 0.0 mm 14.8° 995.1 hPa 2.7 m/s
23:00 14.4° 996.0 hPa 1.7 m/s 0.0 mm 12.2° 993.8 hPa 3.2 m/s 22.9 mm 14.7° 995.3 hPa 1.0 m/s 0.0 mm 14.6° 997.2 hPa 1.7 m/s 0.0 mm 13.6° 996.2 hPa 2.3 m/s 0.0 mm 13.5° 995.8 hPa 6.8 m/s
 05:51     21:29    Daglengte: 15:38 Morgen
02:00 13.6° 996.0 hPa 1.8 m/s 0.0 mm 12.8° 993.4 hPa 4.3 m/s 23.1 mm 13.8° 994.5 hPa 0.1 m/s 0.0 mm 13.7° 997.2 hPa 1.7 m/s 0.0 mm 13.1° 996.3 hPa 2.8 m/s 0.0 mm 13.5° 995.6 hPa 3.1 m/s
05:00 13.2° 994.9 hPa 3.0 m/s 0.0 mm 11.9° 991.6 hPa 4.2 m/s 23.2 mm 13.4° 994.7 hPa 0.6 m/s 0.0 mm 13.6° 997.1 hPa 1.7 m/s 0.0 mm 11.7° 994.9 hPa 3.4 m/s 0.0 mm 13.8° 995.0 hPa 3.0 m/s
08:00 13.7° 994.5 hPa 3.0 m/s 0.0 mm 13.8° 991.1 hPa 6.3 m/s 23.2 mm 13.6° 994.1 hPa 1.8 m/s 0.0 mm 14.2° 997.1 hPa 2.3 m/s 0.0 mm 12.8° 994.5 hPa 3.3 m/s 0.0 mm 13.4° 994.6 hPa 0.7 m/s
11:00 15.6° 995.4 hPa 3.2 m/s 1.9 mm 16.9° 991.3 hPa 6.1 m/s 24.4 mm 15.1° 995.4 hPa 1.2 m/s 0.6 mm 16.9° 997.8 hPa 4.2 m/s 0.0 mm 14.1° 995.6 hPa 3.2 m/s 0.6 mm 14.4° 994.6 hPa 2.4 m/s
14:00 16.8° 996.9 hPa 3.7 m/s 0.0 mm 16.3° 992.9 hPa 7.4 m/s 25.4 mm 16.8° 996.8 hPa 1.1 m/s 0.3 mm 17.8° 998.3 hPa 3.0 m/s 0.0 mm 16.0° 997.4 hPa 7.5 m/s 0.0 mm 14.5° 996.1 hPa 2.7 m/s
17:00 16.0° 998.4 hPa 3.5 m/s 6.2 mm 15.7° 994.6 hPa 6.1 m/s 27.1 mm 16.7° 998.1 hPa 3.1 m/s 0.9 mm 17.0° 999.0 hPa 1.4 m/s 0.0 mm 15.2° 999.3 hPa 5.7 m/s 0.0 mm 15.6° 997.4 hPa 3.7 m/s
20:00 14.9° 999.6 hPa 3.4 m/s 0.0 mm 15.1° 995.6 hPa 5.1 m/s 28.9 mm 14.4° 999.4 hPa 1.4 m/s 0.1 mm 15.4° 1000.0 hPa 1.5 m/s 0.0 mm 14.7° 1000.8 hPa 3.5 m/s 1.9 mm 15.2° 998.8 hPa 3.3 m/s
23:00 13.4° 1000.8 hPa 3.5 m/s 2.1 mm 12.9° 997.3 hPa 5.0 m/s 29.0 mm 14.1° 1001.0 hPa 1.1 m/s 0.0 mm 13.2° 1001.3 hPa 4.1 m/s 0.0 mm 13.8° 1000.7 hPa 4.1 m/s
 05:53     21:26    Daglengte: 15:33 Dinsdag 20 Aug
02:00 13.2° 1001.6 hPa 3.1 m/s 5.7 mm 13.2° 998.8 hPa 6.7 m/s 29.2 mm 13.9° 1001.9 hPa 1.5 m/s 0.3 mm 12.7° 1001.9 hPa 3.3 m/s 1.9 mm 13.0° 1002.0 hPa 3.2 m/s
05:00 13.0° 1002.8 hPa 4.6 m/s 10.9 mm 13.0° 1000.0 hPa 7.8 m/s 30.1 mm 13.4° 1003.1 hPa 0.9 m/s 0.2 mm 12.5° 1003.2 hPa 4.8 m/s 2.5 mm 12.8° 1003.0 hPa 5.2 m/s
08:00 13.2° 1004.7 hPa 5.2 m/s 2.7 mm 13.1° 1001.8 hPa 7.9 m/s 31.3 mm 13.6° 1004.8 hPa 0.9 m/s 0.0 mm 13.0° 1004.9 hPa 5.2 m/s 0.0 mm 13.3° 1004.4 hPa 7.4 m/s
11:00 14.5° 1006.7 hPa 5.7 m/s 5.7 mm 13.8° 1004.4 hPa 9.1 m/s 46.9 mm 15.4° 1006.8 hPa 1.9 m/s 0.0 mm 14.4° 1007.0 hPa 6.0 m/s 0.5 mm 13.7° 1006.2 hPa 9.3 m/s
14:00 15.4° 1009.0 hPa 6.3 m/s 16.9 mm 14.8° 1007.1 hPa 8.1 m/s 49.4 mm 13.4° 1009.5 hPa 5.3 m/s 0.7 mm 16.3° 1009.1 hPa 6.3 m/s 0.0 mm 13.7° 1008.1 hPa 10.7 m/s
17:00 14.4° 1010.2 hPa 6.5 m/s 5.6 mm 14.3° 1008.9 hPa 7.1 m/s 49.4 mm 13.2° 1011.7 hPa 6.1 m/s 0.3 mm 14.9° 1010.0 hPa 6.5 m/s 13.4° 1009.9 hPa 12.6 m/s
20:00 13.4° 1011.3 hPa 6.6 m/s 0.0 mm 13.7° 1010.6 hPa 6.8 m/s 49.6 mm 12.9° 1013.6 hPa 6.1 m/s 0.0 mm 13.4° 1011.0 hPa 6.7 m/s 12.7° 1012.4 hPa 11.7 m/s
23:00 12.6° 1013.1 hPa 5.1 m/s 0.0 mm 12.5° 1012.5 hPa 4.2 m/s 53.8 mm 12.4° 1015.8 hPa 4.1 m/s 0.0 mm 12.8° 1012.6 hPa 6.1 m/s 12.2° 1015.3 hPa 11.0 m/s
 05:56     21:22    Daglengte: 15:26 Woensdag 21 Aug
02:00 12.1° 1014.6 hPa 5.0 m/s 19.9 mm 12.6° 1014.1 hPa 4.3 m/s 59.5 mm 11.7° 1017.0 hPa 4.5 m/s 0.1 mm 12.1° 1014.2 hPa 5.5 m/s 11.9° 1017.1 hPa 10.6 m/s
05:00 11.6° 1017.1 hPa 5.5 m/s 23.6 mm 11.6° 1017.0 hPa 5.4 m/s 11.7° 1018.2 hPa 6.5 m/s 23.6 mm
08:00 11.4° 1018.5 hPa 5.3 m/s 23.7 mm 11.3° 1018.4 hPa 5.4 m/s 12.1° 1019.1 hPa 4.6 m/s 23.7 mm
11:00 12.8° 1019.3 hPa 5.6 m/s 23.7 mm 12.7° 1019.2 hPa 5.6 m/s 13.8° 1019.8 hPa 5.1 m/s 23.7 mm
14:00 14.1° 1020.1 hPa 5.7 m/s 23.7 mm 14.1° 1020.1 hPa 5.8 m/s 14.1° 1020.1 hPa 4.2 m/s 23.7 mm
17:00 14.0° 1019.6 hPa 3.8 m/s 23.9 mm 14.0° 1019.6 hPa 3.6 m/s 14.6° 1019.8 hPa 5.5 m/s 23.9 mm
20:00 13.9° 1019.1 hPa 1.9 m/s 24.0 mm 13.9° 1019.1 hPa 1.5 m/s 14.1° 1019.7 hPa 6.5 m/s 24.0 mm
23:00 12.5° 1018.1 hPa 1.7 m/s 24.6 mm 12.4° 1018.0 hPa 1.9 m/s 13.3° 1019.8 hPa 0.6 m/s 24.6 mm
 05:59     21:19    Daglengte: 15:20 Donderdag 22 Aug
02:00 11.1° 1017.1 hPa 2.1 m/s 24.8 mm 10.9° 1016.9 hPa 2.2 m/s 13.1° 1019.4 hPa 1.3 m/s 24.8 mm
05:00 11.7° 1015.7 hPa 2.7 m/s 25.0 mm 11.6° 1015.5 hPa 2.7 m/s 13.5° 1018.1 hPa 3.2 m/s 25.0 mm
08:00 12.3° 1014.3 hPa 3.1 m/s 25.0 mm 12.2° 1014.0 hPa 3.1 m/s 13.9° 1017.6 hPa 2.9 m/s 25.0 mm
11:00 14.0° 1013.0 hPa 2.2 m/s 25.3 mm 14.2° 1012.6 hPa 2.4 m/s 12.9° 1017.0 hPa 0.3 m/s 25.3 mm
14:00 15.9° 1011.7 hPa 1.5 m/s 25.5 mm 16.1° 1011.2 hPa 1.6 m/s 13.7° 1017.1 hPa 0.5 m/s 25.5 mm
17:00 15.2° 1011.5 hPa 2.6 m/s 25.8 mm 15.4° 1011.0 hPa 2.6 m/s 14.0° 1017.6 hPa 2.5 m/s 25.8 mm
20:00 14.5° 1011.3 hPa 3.7 m/s 25.9 mm 14.6° 1010.7 hPa 3.6 m/s 13.8° 1018.4 hPa 4.4 m/s 25.9 mm
23:00 13.3° 1011.8 hPa 3.4 m/s 25.9 mm 13.3° 1011.2 hPa 3.5 m/s 13.2° 1019.5 hPa 2.3 m/s 25.9 mm
 06:01     21:16    Daglengte: 15:15 Vrijdag 23 Aug
02:00 12.1° 1012.2 hPa 3.4 m/s 25.9 mm 12.0° 1011.6 hPa 3.4 m/s 13.0° 1019.2 hPa 3.0 m/s 25.9 mm
05:00 12.3° 1012.7 hPa 4.0 m/s 26.3 mm 12.2° 1012.2 hPa 4.1 m/s 13.3° 1017.6 hPa 2.5 m/s 26.3 mm
08:00 12.5° 1013.2 hPa 4.7 m/s 27.5 mm 12.4° 1012.9 hPa 4.8 m/s 13.3° 1017.1 hPa 4.2 m/s 27.5 mm
11:00 13.8° 1014.7 hPa 5.6 m/s 27.5 mm 13.8° 1014.3 hPa 5.5 m/s 14.2° 1018.4 hPa 5.6 m/s 27.5 mm
14:00 15.1° 1016.2 hPa 6.2 m/s 28.0 mm 15.2° 1015.8 hPa 6.3 m/s 14.1° 1020.1 hPa 5.4 m/s 28.0 mm
17:00 14.6° 1017.6 hPa 4.2 m/s 28.1 mm 14.6° 1017.4 hPa 4.2 m/s 15.0° 1020.3 hPa 4.7 m/s 28.1 mm
20:00 14.1° 1019.1 hPa 2.3 m/s 28.2 mm 14.0° 1019.0 hPa 2.1 m/s 15.6° 1020.0 hPa 4.3 m/s 28.2 mm
23:00 13.3° 1019.9 hPa 2.2 m/s 28.2 mm 13.2° 1019.9 hPa 2.0 m/s 15.5° 1020.4 hPa 4.9 m/s 28.2 mm
 06:04     21:13    Daglengte: 15:09 Zaterdag 24 Aug
02:00 12.6° 1020.7 hPa 2.0 m/s 28.2 mm 12.3° 1020.7 hPa 1.8 m/s 15.5° 1021.0 hPa 4.0 m/s 28.2 mm
05:00 12.7° 1020.9 hPa 2.3 m/s 28.2 mm 12.4° 1021.0 hPa 2.1 m/s 15.4° 1020.5 hPa 4.4 m/s 28.2 mm
08:00 12.9° 1021.1 hPa 2.7 m/s 28.2 mm 12.6° 1021.2 hPa 2.5 m/s 15.7° 1019.8 hPa 5.1 m/s 28.2 mm
11:00 15.2° 1021.1 hPa 2.7 m/s 28.2 mm 15.1° 1021.2 hPa 2.6 m/s 17.0° 1020.0 hPa 3.0 m/s 28.2 mm
14:00 17.6° 1021.0 hPa 3.0 m/s 28.2 mm 17.5° 1021.1 hPa 2.8 m/s 18.2° 1020.4 hPa 4.7 m/s 28.2 mm
17:00 16.8° 1021.2 hPa 2.5 m/s 28.2 mm 16.6° 1021.2 hPa 2.2 m/s 18.4° 1020.8 hPa 5.5 m/s 28.2 mm
20:00 15.9° 1021.4 hPa 2.0 m/s 28.3 mm 15.8° 1021.4 hPa 1.7 m/s 16.8° 1021.3 hPa 5.4 m/s 28.3 mm
23:00 14.6° 1021.2 hPa 1.8 m/s 28.3 mm 14.5° 1021.1 hPa 1.5 m/s 15.6° 1022.5 hPa 4.8 m/s 28.3 mm
 06:07     21:09    Daglengte: 15:02 Zondag 25 Aug
02:00 13.4° 1021.0 hPa 1.4 m/s 28.3 mm 13.2° 1020.8 hPa 1.4 m/s 15.1° 1022.8 hPa 1.7 m/s 28.3 mm
08:00 13.4° 1019.4 hPa 2.0 m/s 28.4 mm 13.3° 1019.1 hPa 2.1 m/s 14.8° 1022.8 hPa 1.1 m/s 28.4 mm
14:00 14.7° 1016.0 hPa 2.5 m/s 28.7 mm 14.7° 1015.4 hPa 2.6 m/s 14.7° 1022.4 hPa 1.3 m/s 28.7 mm
20:00 13.2° 1015.0 hPa 2.8 m/s 42.0 mm 13.3° 1014.3 hPa 2.7 m/s 11.8° 1022.5 hPa 3.8 m/s 42.0 mm
 06:10     21:06    Daglengte: 14:56 Maandag 26 Aug
02:00 12.6° 1020.0 hPa 1.5 m/s 46.3 mm 12.6° 1019.7 hPa 1.5 m/s 12.0° 1023.2 hPa 2.0 m/s 46.3 mm
08:00 12.3° 1019.4 hPa 2.4 m/s 46.3 mm 12.3° 1018.9 hPa 2.5 m/s 12.0° 1024.3 hPa 1.4 m/s 46.3 mm
14:00 14.7° 1020.6 hPa 3.8 m/s 46.4 mm 14.9° 1020.1 hPa 3.8 m/s 12.4° 1025.8 hPa 3.4 m/s 46.4 mm
20:00 13.5° 1019.8 hPa 3.0 m/s 46.4 mm 13.6° 1019.1 hPa 2.6 m/s 11.9° 1027.1 hPa 7.5 m/s 46.4 mm
 06:12     21:03    Daglengte: 14:51 Dinsdag 27 Aug
02:00 11.8° 1019.0 hPa 3.2 m/s 46.5 mm 11.9° 1018.2 hPa 2.9 m/s 11.2° 1028.2 hPa 6.8 m/s 46.5 mm
08:00 12.4° 1019.1 hPa 3.4 m/s 46.5 mm 12.5° 1018.2 hPa 3.2 m/s 11.0° 1028.5 hPa 5.5 m/s 46.5 mm
14:00 11.8° 1028.4 hPa 8.4 m/s 46.5 mm 11.8° 1028.4 hPa 8.4 m/s 46.5 mm
20:00 13.1° 1017.0 hPa 2.8 m/s 2.4 mm
 06:15     20:59    Daglengte: 14:44 Woensdag 28 Aug
02:00 11.3° 1017.6 hPa 2.4 m/s 1.9 mm
08:00 11.5° 1016.5 hPa 2.0 m/s 2.5 mm
14:00 14.5° 1015.8 hPa 2.1 m/s 2.9 mm
20:00 13.3° 1015.8 hPa 1.9 m/s 1.9 mm
 06:18     20:56    Daglengte: 14:38 Donderdag 29 Aug
02:00 11.3° 1016.1 hPa 2.5 m/s 0.9 mm
08:00 11.7° 1015.7 hPa 1.9 m/s 1.4 mm
14:00 14.6° 1016.0 hPa 2.0 m/s 1.0 mm
20:00 12.9° 1016.2 hPa 1.6 m/s 0.8 mm
 06:20     20:53    Daglengte: 14:33 Vrijdag 30 Aug
02:00 10.6° 1016.7 hPa 1.4 m/s 0.8 mm
08:00 10.9° 1016.0 hPa 1.5 m/s 0.7 mm
14:00 13.6° 1015.6 hPa 2.0 m/s 1.2 mm
20:00 12.4° 1015.2 hPa 1.5 m/s 0.7 mm
 06:23     20:49    Daglengte: 14:26 Zaterdag 31 Aug
02:00 10.0° 1014.9 hPa 1.6 m/s 0.8 mm
08:00 10.4° 1013.4 hPa 1.6 m/s 0.9 mm
14:00 13.9° 1011.6 hPa 1.7 m/s 1.2 mm
20:00 12.7° 1009.8 hPa 1.4 m/s 1.5 mm
 06:26     20:46    Daglengte: 14:20 Zondag 01 Sep
02:00 10.9° 1009.4 hPa 2.3 m/s 2.7 mm
08:00 11.1° 1009.2 hPa 2.3 m/s 3.0 mm
14:00 13.6° 1009.7 hPa 2.6 m/s 2.2 mm
20:00 12.2° 1009.8 hPa 2.3 m/s 2.8 mm
FMI Hirlam - 7.5 km EWN WRFDA - 12 km DWD ICON - 7 km GFS - 25 km Basiskaart






























































Updatetijd (Europe/Amsterdam) Resolutie Lengte Stap
FMI Hirlam 01:00, 07:00, 13:00, 19:00 7.5 km 49h 1h
EWN WRFDA 21:30, 03:30, 09:30, 15:30 12 km 73h 1h
DWD ICON 23:45, 05:45, 11:45, 17:45 7 km 75h 1h
GFS 20:30, 02:30, 08:30, 14:30 25 km 237h 3h
30+ mm
25-30 mm
20-25 mm
15-20 mm
10-15 mm
6-10 mm
4-6 mm
2-4 mm
1-2 mm
0.5-1 mm
0.2-0.5 mm
0.1-0.2 mm
30+ mm
25-30 mm
20-25 mm
15-20 mm
10-15 mm
6-10 mm
4-6 mm
2-4 mm
1-2 mm
0.5-1 mm
0.2-0.5 mm
0.1-0.2 mm
Sneeuwval
Natte sneeuw
Hagel
Vorst
30+ mm
25-30 mm
20-25 mm
15-20 mm
10-15 mm
6-10 mm
4-6 mm
2-4 mm
1-2 mm
0.5-1 mm
0.2-0.5 mm
0.1-0.2 mm
Sneeuwval
Natte sneeuw
Hagel
Vorst
Onweer
50 mm
40 mm
30 mm
26 mm
22 mm
18 mm
14 mm
10 mm
9 mm
8 mm
7 mm
6 mm
5 mm
4.5 mm
4 mm
3.5 mm
3 mm
2.5 mm
2 mm
1.5 mm
1 mm
0.8 mm
0.6 mm
0.4 mm
0.2 mm
0.05 mm
35°
30°
25°
20°
15°
10°
-5°
-10°
-15°
-20°
-25°
-30°
-35°
33> m/s
29 m/s
25 m/s
21 m/s
17 m/s
14 m/s
11 m/s
8 m/s
5 m/s
3 m/s
0 m/s
2600 J/kg
2400 J/kg
2200 J/kg
2000 J/kg
1800 J/kg
1600 J/kg
1400 J/kg
1200 J/kg
1000 J/kg
800 J/kg
600 J/kg
400 J/kg
200 J/kg
70 dBZ
65 dBZ
60 dBZ
55 dBZ
50 dBZ
45 dBZ
40 dBZ
35 dBZ
30 dBZ
25 dBZ
20 dBZ
15 dBZ
10 dBZ
5 dBZ
-1 K
-2 K
-3 K
-4 K
-5 K
-6 K
-7 K
-8 K
-9 K
950 m²/s²
900 m²/s²
850 m²/s²
800 m²/s²
750 m²/s²
700 m²/s²
650 m²/s²
600 m²/s²
550 m²/s²
500 m²/s²
450 m²/s²
400 m²/s²
350 m²/s²
300 m²/s²
250 m²/s²
200 m²/s²
150 m²/s²
100 m²/s²
46 m/s
44 m/s
42 m/s
40 m/s
38 m/s
36 m/s
34 m/s
32 m/s
30 m/s
28 m/s
26 m/s
24 m/s
22 m/s
20 m/s
16 m/s
12 m/s
8 m/s
4 m/s
30 m/s
28 m/s
26 m/s
24 m/s
22 m/s
20 m/s
18 m/s
16 m/s
14 m/s
12 m/s
10 m/s
8 m/s
6 m/s
4 m/s
2 m/s
3.0
2.8
2.6
2.4
2.2
2.0
1.8
1.6
1.4
1.2
1.0
0.8